Powrót do katalogu

PSLV R/B

AktywnyHEO
NORAD 62257·ROCKET BODY·🇮🇳 India

Wystrzelony Dec 5, 2024 z Satish Dhawan Space Centre

Loading…

Następne Przeloty (najbliższe 24 godziny)

TLE

ŚwieżeSource: Space-Track

Epoka: Sep 12, 2026, 12:49 UTC

1 62257U 24233B   26255.53453690 -.00000114  00000-0  00000-0 0  9998
2 62257  59.9115  91.3302 8010889 207.3931  63.9788  1.20455651  7783

Śledź PSLV R/B w czasie rzeczywistym z AllMySat

Download on the App Store